TimeCDT,TemperatureF,Dew PointF,Humidity,Sea Level PressureIn,VisibilityMPH,Wind Direction,Wind SpeedMPH,Gust SpeedMPH,PrecipitationIn,Events,Conditions,WindDirDegrees,DateUTC
12:03 AM,55.9,51.1,84,30.05,10.0,NNE,12.7,-,N/A,,Overcast,30,2014-06-08 05:03:00
12:54 AM,55.9,50.0,80,30.05,10.0,NNE,12.7,-,N/A,,Overcast,20,2014-06-08 05:54:00
1:54 AM,55.9,48.9,77,30.04,10.0,NNE,9.2,-,N/A,,Overcast,20,2014-06-08 06:54:00
2:54 AM,54.0,48.0,80,30.06,10.0,North,9.2,-,N/A,,Mostly Cloudy,10,2014-06-08 07:54:00
3:54 AM,51.1,46.9,86,30.06,10.0,NNW,10.4,-,N/A,,Clear,330,2014-06-08 08:54:00
4:54 AM,50.0,46.9,89,30.07,10.0,North,9.2,-,N/A,,Clear,350,2014-06-08 09:54:00
5:54 AM,50.0,46.0,86,30.09,10.0,North,9.2,-,N/A,,Clear,350,2014-06-08 10:54:00
6:54 AM,53.1,48.0,83,30.10,10.0,North,11.5,-,N/A,,Clear,360,2014-06-08 11:54:00
7:54 AM,57.9,46.9,67,30.13,10.0,NNE,9.2,-,N/A,,Clear,20,2014-06-08 12:54:00
8:54 AM,62.1,46.9,58,30.13,10.0,NE,12.7,-,N/A,,Clear,40,2014-06-08 13:54:00
9:54 AM,66.0,46.0,48,30.13,10.0,NE,13.8,23.0,N/A,,Clear,40,2014-06-08 14:54:00
10:54 AM,68.0,42.1,39,30.12,10.0,NE,16.1,25.3,N/A,,Clear,40,2014-06-08 15:54:00
11:54 AM,69.1,39.9,35,30.12,10.0,NE,9.2,17.3,N/A,,Clear,40,2014-06-08 16:54:00
12:54 PM,70.0,43.0,38,30.11,10.0,ENE,9.2,17.3,N/A,,Clear,70,2014-06-08 17:54:00
1:54 PM,71.1,41.0,34,30.09,10.0,NNE,12.7,-,N/A,,Clear,30,2014-06-08 18:54:00
2:54 PM,71.1,39.9,32,30.07,10.0,Variable,4.6,-,N/A,,Clear,0,2014-06-08 19:54:00
3:54 PM,72.0,39.9,31,30.07,10.0,ESE,8.1,-,N/A,,Partly Cloudy,110,2014-06-08 20:54:00
4:54 PM,73.0,41.0,31,30.06,10.0,NE,10.4,-,N/A,,Partly Cloudy,50,2014-06-08 21:54:00
5:54 PM,72.0,41.0,33,30.05,10.0,NE,10.4,-,N/A,,Clear,40,2014-06-08 22:54:00
6:54 PM,69.1,42.1,38,30.04,10.0,East,6.9,-,N/A,,Clear,90,2014-06-08 23:54:00
7:54 PM,66.9,39.9,37,30.04,10.0,NE,6.9,-,0.00,,Clear,50,2014-06-09 00:54:00
8:54 PM,66.0,41.0,40,30.05,10.0,ENE,4.6,-,N/A,,Clear,70,2014-06-09 01:54:00
9:54 PM,63.0,42.1,46,30.06,10.0,East,3.5,-,N/A,,Partly Cloudy,90,2014-06-09 02:54:00
10:54 PM,63.0,44.1,50,30.07,10.0,NE,5.8,-,N/A,,Clear,50,2014-06-09 03:54:00
11:54 PM,62.1,44.1,52,30.06,10.0,NE,5.8,-,N/A,,Mostly Cloudy,40,2014-06-09 04:54:00